Home   Weather   Lund   Past weeks

Flag for Sweden Past Weather in Lund, Sweden — Yesterday and Last 2 Weeks

Now
59 °F

Partly sunny.


Feels Like: 57 °F
Forecast: 53 / 69 °F
Wind: 9 mph from Northwest

Location: Malmo / Sturup

Current Time: May 29, 2017 at 6:08:08 am

Latest Report: May 29, 2017 at 5:50 am


Visibility: N/A

Pressure: 29.86 "Hg

Humidity: 88%

Dew Point: 55 °F

Location of LundLocation

Past Weather in Lund — Graph

°F

Lund Temperature Yesterday

Maximum temperature yesterday: 73 °F (at 11:20 am)
Minimum temperature yesterday: 52 °F (at 3:20 am)
Average temperature yesterday: 65 °F

High & Low Weather Summary for the Past Weeks

 TemperatureHumidityPressure
High75 °F (May 19, 1:50 pm)100% (May 15, 5:20 am)30.42 "Hg (May 15, 5:20 am)
Low41 °F (May 23, 2:20 am)44% (May 26, 6:50 pm)29.80 "Hg (May 19, 3:20 am)
Average58 °F75%30.09 "Hg
* Reported May 14 4:20 am — May 29 4:50 am, Lund. Weather by CustomWeather, © 2017

Note: Actual official high and low records may vary slightly from our data, if they occured in-between our weather recording intervals... More about our weather records

Advertising

Lund Weather History for the Previous 24 Hours

Scroll right to see more
 ConditionsComfort  
Time TempWeatherWind HumidityBarometerVisibility
4:50 am
Mon, May 29
59 °FPartly sunny.9 mph88%29.86 "HgN/A
4:20 am59 °FFog.12 mph94%29.86 "Hg6 mi
3:20 am61 °FFog.12 mph88%29.89 "Hg6 mi
2:20 am61 °FOvercast.13 mph83%29.89 "HgN/A
1:50 am61 °FOvercast.12 mph83%29.89 "HgN/A
1:20 am61 °FOvercast.13 mph83%29.89 "HgN/A
12:50 am61 °FOvercast.13 mph83%29.89 "HgN/A
12:20 am61 °FOvercast.12 mph83%29.92 "HgN/A
11:50 pm
Sun, May 28
61 °FClear.17 mph83%29.92 "Hg10 mi
11:20 pm63 °FClear.13 mph83%29.92 "Hg10 mi
10:50 pm61 °FClear.12 mph88%29.92 "Hg10 mi
10:20 pm63 °FClear.14 mph77%29.92 "Hg10 mi
9:50 pm63 °FClear.10 mph77%29.92 "Hg10 mi
9:20 pm64 °FSunny.14 mph73%29.92 "Hg10 mi
8:50 pm66 °FSunny.13 mph68%29.92 "Hg10 mi
8:20 pm68 °FSunny.13 mph64%29.92 "Hg10 mi
7:50 pm70 °FSunny.14 mph60%29.92 "Hg10 mi
7:20 pm72 °FSunny.16 mph61%29.92 "Hg10 mi
6:50 pm72 °FSunny.16 mph65%29.92 "Hg10 mi
6:20 pm73 °FSunny.16 mph61%29.92 "Hg10 mi
5:50 pm72 °FSunny.18 mph61%29.95 "Hg10 mi
5:20 pm72 °FSunny.16 mph61%29.95 "Hg10 mi
4:50 pm70 °FSunny.14 mph69%29.95 "Hg10 mi
4:20 pm70 °FSunny.13 mph69%29.95 "Hg10 mi
3:50 pm68 °FSunny.12 mph69%29.95 "Hg10 mi
3:20 pm68 °FLight rain. Clear.13 mph69%29.98 "HgN/A
2:50 pm70 °FSunny.10 mph64%29.98 "Hg10 mi
2:20 pm72 °FSunny.14 mph61%29.98 "Hg10 mi
1:50 pm70 °FSunny.12 mph60%29.98 "Hg10 mi
1:20 pm72 °FSunny.18 mph57%29.98 "Hg10 mi
12:50 pm73 °FSunny.15 mph57%30.01 "Hg10 mi
12:20 pm72 °FSunny.15 mph57%30.01 "Hg10 mi
11:50 am73 °FSunny.14 mph53%30.01 "Hg10 mi
11:20 am73 °FSunny.13 mph50%30.01 "Hg10 mi
10:50 am70 °FSunny.14 mph57%30.04 "Hg10 mi
10:20 am70 °FSunny.13 mph60%30.04 "Hg10 mi
9:50 am70 °FSunny.13 mph57%30.04 "Hg10 mi
9:20 am70 °FSunny.13 mph57%30.04 "Hg10 mi
8:50 am68 °FSunny.13 mph60%30.07 "Hg10 mi
8:20 am66 °FSunny.12 mph60%30.07 "Hg10 mi
7:50 am64 °FSunny.10 mph64%30.07 "Hg10 mi
7:20 am64 °FSunny.8 mph68%30.07 "Hg10 mi
6:50 am61 °FSunny.8 mph77%30.07 "Hg10 mi
6:20 am59 °FSunny.8 mph82%30.09 "Hg10 mi
Weather by CustomWeather, © 2017

See weather overviewHow to use our weather pages